This is the latest recevied weather packets stored in our database for station/object WD4IXD-WX. If no packets are shown the sender has not sent any weather packets the latest 1 day(s).
| Time | Temp. | Humidity | Pressure | Rain* | Wind** | Luminosity | Snow |
|---|---|---|---|---|---|---|---|
| 1778100004 | -2.22° C | 73% | 1017.7 hPa | 0.76 mm | - | 972 W/m² | - |
| 1778098504 | -1.67° C | 74% | 1017.6 hPa | 0 mm | - | 981 W/m² | - |
| 1778097904 | -1.67° C | 72% | 1017.5 hPa | 0 mm | - | 990 W/m² | - |
| 1778097304 | -1.11° C | 73% | 1017.4 hPa | 0 mm | - | 1005 W/m² | - |
| 1778092804 | -1.67° C | 81% | 1017.5 hPa | 0 mm | - | 668 W/m² | - |
| 1778088604 | -3.89° C | 83% | 1017.1 hPa | 0.25 mm | - | 466 W/m² | - |
| 1778088004 | -3.89° C | 83% | 1017 hPa | 0.25 mm | - | 529 W/m² | - |
| 1778085304 | -3.33° C | 84% | 1016.6 hPa | 0 mm | - | 360 W/m² | - |
| 1778084704 | -3.33° C | 85% | 1016.5 hPa | 0 mm | - | 359 W/m² | - |
| 1778082604 | -5° C | 88% | 1016.5 hPa | 0 mm | - | 149 W/m² | - |
| 1778082004 | -5.56° C | 89% | 1016.4 hPa | 0 mm | - | 139 W/m² | - |
| 1778079904 | -6.11° C | 89% | 1016.1 hPa | 0 mm | - | 67 W/m² | - |
| 1778079304 | -6.67° C | 89% | 1016 hPa | 0 mm | - | 47 W/m² | - |
| 1778078704 | -6.67° C | 89% | 1015.8 hPa | 0 mm | - | 70 W/m² | - |
| 1778075404 | -6.67° C | 89% | 1015.5 hPa | 0 mm | - | 69 W/m² | - |
| 1778074504 | -6.67° C | 89% | 1015.3 hPa | 0 mm | - | 69 W/m² | - |
| 1778073304 | -7.22° C | 89% | 1015 hPa | 0 mm | - | 56 W/m² | - |
| 1778072704 | -7.22° C | 90% | 1015 hPa | 0 mm | - | 32 W/m² | - |
| 1778071804 | -7.22° C | 90% | 1014.9 hPa | 0 mm | - | 11 W/m² | - |
| 1778069404 | -6.67° C | 90% | 1014.8 hPa | 0 mm | - | 7 W/m² | - |
| 1778068504 | -6.67° C | 90% | 1014.8 hPa | 0 mm | - | 0 W/m² | - |
| 1778067304 | -6.67° C | 90% | 1014.5 hPa | 0 mm | - | 0 W/m² | - |
| 1778067004 | -6.67° C | 90% | 1014.4 hPa | 0 mm | - | 0 W/m² | - |
| 1778066404 | -6.67° C | 90% | 1014.5 hPa | 0 mm | - | 0 W/m² | - |
| 1778065804 | -6.67° C | 90% | 1014.5 hPa | 0 mm | - | 0 W/m² | - |
* Rain latest hour (hover to see other rain measurements)
** Current wind speed in m/s (hover to see current wind gust speed)